TITAN 3C TRANSTAGE DEB, 3454

Orbit data source: Space-Track

TITAN 3C TRANSTAGE DEB, 3454 is space debris in LEO originally from a launch on Fri, 15 Oct 1965 UTC launched from the Air Force Eastern Test Range (AFETR). Debris objects in space refer to the collection of defunct objects orbiting the Earth. Examples of debris include non-operational satellites, rocket bodies, and fragments generated from explosions, collisions, or faulty payload assembly.

Loading next visibility...
Identifier
3454, 1965-082PP
Orbit
LEO
Country
Flag of USUS
Related business
Manufacturer
Unknown
Mission
Spacecraft
Bus & Motor
Unknown
Mass
Unknown
Launch date (UTC)
1965-10-15 (60 years ago)
Launch vehicle
Unknown
Launch site
Air Force Eastern Test Range (AFETR)
Object type
Payload
Rocket body
Debris
Shape & HBR
Unknown shape, 0.1 m
Radar Cross Section
Small (<0.1 m²)

Expand to show TLE details & history
Last TLE update: 15 hours ago

TLE from 15 hours ago
0 TITAN 3C TRANSTAGE DEB
1 03454U 65082PP  25340.61766308  .00013966  00000-0  86467-3 0  9997
2 03454  32.2588 180.5883 0014562 230.2297 129.7082 15.08654087216745
Epoch: 2025-12-06T14:49Z
TLE epoch observation values (Epoch: 2025-12-06T14:49:26.090Z)
Latitude
0.00003°
Longitude
-117.41319°
Altitude
545.39 km
Speed
7.588 km/s
True Right ascension
12h 02m 21s
True Declination
0° 00' 00"
Sunlit
Object was in daylight at epoch
Visualization orbit readout
Latitude
Unknown
Longitude
Unknown
Altitude
Unknown
Speed
Unknown
Apparent Right ascension
Unknown
Apparent Declination
Unknown
Sunlit
N/A
Visualization observer readout
Local Sidereal Time
03:27:08
Azimuth
Unknown
Elevation
Unknown
Doppler factor
Unknown
Orbital elements
Apogee altitude
554.043 km
Perigee altitude
533.883 km
Semi-major axis
6,922.1 km
Eccentricity
0.00146
Inclination
32.2588°
RAAN
180.5883°
Arg. of periapsis
230.2297°
True anomaly
129.83642°
Mean anomaly
129.7082°
Eccentric anomaly
129.77233°
Mean motion
3.76865 °/min
Orbital period
95.52 mins
BSTAR
0.00086467

Documentation

Showing up to 5 results
|